This is the latest recevied weather packets stored in our database for station/object OE5RPP. If no packets are shown the sender has not sent any weather packets the latest 10 day(s).
| Time | Temp. | Humidity | Pressure | Rain* | Wind** | Luminosity | Snow |
|---|---|---|---|---|---|---|---|
| 1787755084 | 28.33° C | 15% | 1020.9 hPa | 0 mm | - | - | - |
| 1787754483 | 28.33° C | 15% | 1020.9 hPa | 0 mm | - | - | - |
| 1787753884 | 27.78° C | 15% | 1020.9 hPa | 0 mm | - | - | - |
| 1787753284 | 28.89° C | 15% | 1020.9 hPa | 0 mm | - | - | - |
| 1787752683 | 29.44° C | 15% | 1020.9 hPa | 0 mm | - | - | - |
| 1787752084 | 28.33° C | 15% | 1020.9 hPa | 0 mm | - | - | - |
| 1787751484 | 29.44° C | 18% | 1020.9 hPa | 0 mm | - | - | - |
| 1787750882 | 27.78° C | 20% | 1020.9 hPa | 0 mm | - | - | - |
| 1787750282 | 27.22° C | 22% | 1020.9 hPa | 0 mm | - | - | - |
| 1787749682 | 25° C | 27% | 1020.9 hPa | 0 mm | - | - | - |
| 1787749083 | 24.44° C | 29% | 1020.9 hPa | 0 mm | - | - | - |
| 1787748483 | 25° C | 29% | 1020.9 hPa | 0 mm | - | - | - |
| 1787747883 | 25° C | 27% | 1020.9 hPa | 0 mm | - | - | - |
| 1787747282 | 24.44° C | 29% | 1020.9 hPa | 0 mm | - | - | - |
| 1787746684 | 24.44° C | 29% | 1021.9 hPa | 0 mm | - | - | - |
| 1787746083 | 24.44° C | 27% | 1021.9 hPa | 0 mm | - | - | - |
| 1787745483 | 25° C | 27% | 1021.9 hPa | 0 mm | - | - | - |
| 1787744883 | 25° C | 23% | 1021.9 hPa | 0 mm | - | - | - |
| 1787744283 | 25° C | 29% | 1021.9 hPa | 0 mm | - | - | - |
| 1787743683 | 25° C | 29% | 1021.9 hPa | 0 mm | - | - | - |
| 1787743082 | 24.44° C | 29% | 1021.9 hPa | 0 mm | - | - | - |
| 1787742482 | 24.44° C | 27% | 1021.9 hPa | 0 mm | - | - | - |
| 1787741882 | 25.56° C | 31% | 1021.9 hPa | 0 mm | - | - | - |
| 1787741281 | 24.44° C | 29% | 1021.9 hPa | 0 mm | - | - | - |
| 1787740681 | 23.89° C | 34% | 1021.9 hPa | 0 mm | - | - | - |
* Rain latest hour (hover to see other rain measurements)
** Current wind speed in m/s (hover to see current wind gust speed)